FW1310 Weather Reports


time (UTC)temp
F
wind
direction
speed
knots
gust
knots
rain 1hr
in
rain 24hr
in
rain mn
in
humidity
%
barometer
mb
20260503231005 76 240 3.5 6.1 0.00 0.00 0.00 35 1002.8
20260503230505 77 258 2.6 4.3 0.00 0.00 0.00 35 1002.5
20260503230004 77 284 2.6 4.3 0.00 0.00 0.00 35 1002.7
20260503225505 78 251 2.6 6.1 0.00 0.00 0.00 35 1002.8
20260503225005 78 214 3.5 6.1 0.00 0.00 0.00 34 1002.8
20260503224504 79 222 4.3 6.1 0.00 0.00 0.00 33 1002.8
20260503224005 79 266 2.6 6.1 0.00 0.00 0.00 34 1003.0
20260503223504 78 238 3.5 6.1 0.00 0.00 0.00 33 1003.1
20260503222505 79 243 3.5 10.4 0.00 0.00 0.00 34 1003.2
20260503221504 78 247 1.7 5.2 0.00 0.00 0.00 34 1003.2
20260503221004 78 282 4.3 8.7 0.00 0.00 0.00 33 1003.4
20260503220504 79 245 6.1 8.7 0.00 0.00 0.00 33 1003.3
20260503220004 79 248 2.6 7.8 0.00 0.00 0.00 34 1003.5
20260503215504 79 256 1.7 7.0 0.00 0.00 0.00 34 1003.5
20260503215004 79 288 3.5 7.0 0.00 0.00 0.00 35 1003.5
20260503214504 78 284 2.6 5.2 0.00 0.00 0.00 32 1003.7
20260503214004 79 276 1.7 8.7 0.00 0.00 0.00 33 1003.8
20260503212504 79 260 2.6 6.1 0.00 0.00 0.00 33 1004.1
20260503211504 78 238 2.6 10.4 0.00 0.00 0.00 32 1004.2
20260503211005 78 279 3.5 8.7 0.00 0.00 0.00 33 1004.2
20260503210505 78 229 2.6 7.8 0.00 0.00 0.00 33 1004.3
20260503205505 79 267 4.3 7.0 0.00 0.00 0.00 33 1004.5
20260503205004 79 251 4.3 6.1 0.00 0.00 0.00 33 1004.6
20260503204504 79 268 2.6 8.7 0.00 0.00 0.00 34 1004.7
20260503204005 79 286 5.2 10.4 0.00 0.00 0.00 32 1004.7
20260503203504 79 289 1.7 7.8 0.00 0.00 0.00 34 1004.8
20260503203004 79 244 3.5 7.0 0.00 0.00 0.00 36 1004.8
20260503202504 78 254 4.3 6.1 0.00 0.00 0.00 33 1004.9
20260503202005 80 289 3.5 6.1 0.00 0.00 0.00 32 1005.2
20260503201504 80 358 1.7 7.8 0.00 0.00 0.00 34 1005.3
20260503201005 80 307 2.6 11.3 0.00 0.00 0.00 34 1005.2
20260503200505 79 247 5.2 11.3 0.00 0.00 0.00 32 1005.3
20260503200005 79 285 2.6 7.0 0.00 0.00 0.00 33 1005.3
20260503195005 79 236 2.6 7.8 0.00 0.00 0.00 32 1005.5
20260503194504 79 230 3.5 6.1 0.00 0.00 0.00 31 1005.6
20260503194004 79 277 0.9 7.0 0.00 0.00 0.00 29 1005.6
20260503193504 79 274 4.3 7.0 0.00 0.00 0.00 29 1005.6
20260503193004 79 304 3.5 5.2 0.00 0.00 0.00 31 1005.7
20260503192504 79 55 2.6 7.0 0.00 0.00 0.00 30 1005.9
20260503192004 78 3 1.7 5.2 0.00 0.00 0.00 33 1005.8
20260503191504 79 284 4.3 10.4 0.00 0.00 0.00 32 1005.9
20260503191004 79 222 2.6 6.1 0.00 0.00 0.00 33 1006.0
20260503190504 78 267 2.6 7.0 0.00 0.00 0.00 33 1006.0
20260503190004 78 280 1.7 7.0 0.00 0.00 0.00 33 1006.1
20260503185505 78 289 4.3 6.1 0.00 0.00 0.00 32 1006.2
20260503185004 78 253 2.6 6.1 0.00 0.00 0.00 33 1006.3
20260503184504 79 274 2.6 8.7 0.00 0.00 0.00 35 1006.3
20260503183004 78 286 4.3 7.0 0.00 0.00 0.00 34 1006.4
20260503182504 78 260 1.7 4.3 0.00 0.00 0.00 35 1006.6
20260503182006 78 289 1.7 6.1 0.00 0.00 0.00 33 1006.8
20260503181505 78 263 3.5 7.0 0.00 0.00 0.00 33 1006.9
20260503181004 78 241 1.7 7.8 0.00 0.00 0.00 34 1006.9
20260503180004 78 285 4.3 6.1 0.00 0.00 0.00 34 1007.0
20260503175005 77 223 3.5 7.0 0.00 0.00 0.00 36 1007.2
20260503174504 77 292 2.6 6.1 0.00 0.00 0.00 39 1007.2
20260503174004 78 269 1.7 6.1 0.00 0.00 0.00 39 1007.4
20260503173505 77 310 1.7 4.3 0.00 0.00 0.00 40 1007.5
20260503173005 77 312 1.7 6.1 0.00 0.00 0.00 40 1007.4
20260503172504 77 304 2.6 6.1 0.00 0.00 0.00 39 1007.6
20260503172004 77 289 1.7 4.3 0.00 0.00 0.00 38 1007.7
20260503171504 77 270 0.9 6.1 0.00 0.00 0.00 41 1007.8
20260503170504 76 331 0.9 4.3 0.00 0.00 0.00 41 1007.8
20260503151005 72 1 1.7 4.3 0.00 0.00 0.00 48 1008.3
20260503150505 72 282 1.7 4.3 0.00 0.00 0.00 49 1008.1
20260503131004 60 25 0.0 1.7 0.00 0.00 0.00 69 1007.9
20260503020503 66 207 0.0 0.9 0.00 0.00 0.00 54 1005.8
20260503020004 67 200 0.0 1.7 0.00 0.00 0.00 54 1005.9
20260503015503 67 218 0.9 1.7 0.00 0.00 0.00 53 1005.7
20260503014504 67 203 0.0 0.0 0.00 0.00 0.00 54 1005.7
20260503014004 67 194 0.0 0.0 0.00 0.00 0.00 53 1005.6
20260503013504 67 196 0.0 0.0 0.00 0.00 0.00 52 1005.7
20260503013005 68 189 0.0 1.7 0.00 0.00 0.00 51 1005.7
20260503012504 68 260 1.7 1.7 0.00 0.00 0.00 50 1005.7
20260503012004 68 199 0.0 1.7 0.00 0.00 0.00 49 1005.5
20260503011504 69 208 0.9 2.6 0.00 0.00 0.00 47 1005.6
20260503011004 69 185 0.0 0.0 0.00 0.00 0.00 46 1005.4
20260503010005 70 186 0.9 1.7 0.00 0.00 0.00 44 1005.4
20260503005504 70 194 0.9 1.7 0.00 0.00 0.00 43 1005.4
20260503005004 71 183 1.7 4.3 0.00 0.00 0.00 42 1005.4
20260503004505 71 182 2.6 4.3 0.00 0.00 0.00 41 1005.3
20260503004004 72 189 1.7 2.6 0.00 0.00 0.00 40 1005.2
20260503003504 72 172 1.7 2.6 0.00 0.00 0.00 39 1005.3
20260503002504 73 187 0.9 2.6 0.00 0.00 0.00 38 1005.3
20260503002004 73 175 0.9 2.6 0.00 0.00 0.00 37 1005.4
20260503001504 73 182 1.7 4.3 0.00 0.00 0.00 37 1005.2
20260503001004 73 197 1.7 2.6 0.00 0.00 0.00 38 1005.3
20260503000504 74 182 1.7 4.3 0.00 0.00 0.00 37 1005.1
20260503000004 74 148 1.7 2.6 0.00 0.00 0.00 35 1005.3
20260502235004 75 173 1.7 4.3 0.00 0.00 0.00 35 1005.2
20260502234504 76 42 0.0 0.9 0.00 0.00 0.00 36 1005.1
20260502234004 75 126 0.0 0.9 0.00 0.00 0.00 36 1005.2
20260502233004 75 163 1.7 4.3 0.00 0.00 0.00 35 1005.2
20260502232504 75 182 2.6 4.3 0.00 0.00 0.00 34 1005.1